Year,Month,Day,Hour,Minute,Value (Times are PST for temperature in C)
2008,05,23,00,00,8.20
2008,05,23,00,01,8.20
2008,05,23,00,02,8.20
2008,05,23,00,03,8.20
2008,05,23,00,04,8.10
2008,05,23,00,05,8.10
2008,05,23,00,06,8.10
2008,05,23,00,07,8.10
2008,05,23,00,08,8.10
2008,05,23,00,09,8.10
2008,05,23,00,10,8.10
2008,05,23,00,11,8.00
2008,05,23,00,12,8.00
2008,05,23,00,13,8.00
2008,05,23,00,14,8.00
2008,05,23,00,15,8.00
2008,05,23,00,16,8.00
2008,05,23,00,17,8.00
2008,05,23,00,18,8.00
2008,05,23,00,19,8.00
2008,05,23,00,20,8.00
2008,05,23,00,21,8.00
2008,05,23,00,22,8.00
2008,05,23,00,23,7.90
2008,05,23,00,24,7.90
2008,05,23,00,25,7.90
2008,05,23,00,26,7.80
2008,05,23,00,27,7.80
2008,05,23,00,28,7.80
2008,05,23,00,29,7.80
2008,05,23,00,30,7.70
2008,05,23,00,31,7.70
2008,05,23,00,32,7.70
2008,05,23,00,33,7.70
2008,05,23,00,34,7.70
2008,05,23,00,35,7.70
2008,05,23,00,36,7.70
2008,05,23,00,37,7.70
2008,05,23,00,38,7.70
2008,05,23,00,39,7.70
2008,05,23,00,40,7.70
2008,05,23,00,41,7.70
2008,05,23,00,42,7.70
2008,05,23,00,43,7.70
2008,05,23,00,44,7.70
2008,05,23,00,45,7.70
2008,05,23,01,02,7.40
2008,05,23,01,03,7.30
2008,05,23,01,04,7.30
2008,05,23,01,05,7.30
2008,05,23,01,06,7.30
2008,05,23,01,07,7.30
2008,05,23,01,08,7.30
2008,05,23,01,09,7.30
2008,05,23,01,10,7.30
2008,05,23,01,11,7.20
2008,05,23,01,12,7.20
2008,05,23,01,13,7.20
2008,05,23,01,14,7.20
2008,05,23,01,15,7.20
2008,05,23,01,16,7.20
2008,05,23,01,17,7.20
2008,05,23,01,18,7.20
2008,05,23,01,19,7.20
2008,05,23,01,20,7.20
2008,05,23,01,21,7.20
2008,05,23,01,22,7.20
2008,05,23,01,23,7.20
2008,05,23,01,24,7.20
2008,05,23,01,25,7.20
2008,05,23,01,26,7.20
2008,05,23,01,27,7.10
2008,05,23,01,28,7.10
2008,05,23,01,29,7.10
2008,05,23,01,30,7.10
2008,05,23,01,31,7.10
2008,05,23,01,32,7.10
2008,05,23,01,33,7.10
2008,05,23,01,34,7.10
2008,05,23,01,35,7.00
2008,05,23,01,36,7.00
2008,05,23,01,37,7.00
2008,05,23,01,38,7.00
2008,05,23,01,39,7.00
2008,05,23,01,40,7.00
2008,05,23,01,41,7.00
2008,05,23,01,42,6.90
2008,05,23,01,43,6.90
2008,05,23,01,44,6.90
2008,05,23,01,45,6.90
2008,05,23,01,46,6.90
2008,05,23,01,47,6.90
2008,05,23,01,48,6.90
2008,05,23,01,49,6.90
2008,05,23,01,50,6.90
2008,05,23,01,51,6.90
2008,05,23,01,52,6.90
2008,05,23,01,53,6.90
2008,05,23,01,54,6.90
2008,05,23,01,55,6.90
2008,05,23,01,56,6.90
2008,05,23,01,57,6.90
2008,05,23,01,58,6.90
2008,05,23,01,59,6.90
2008,05,23,02,00,6.80
2008,05,23,02,01,6.80
2008,05,23,02,02,6.80
2008,05,23,02,03,6.80
2008,05,23,02,04,6.80
2008,05,23,02,05,6.80
2008,05,23,02,06,6.80
2008,05,23,02,07,6.80
2008,05,23,02,08,6.80
2008,05,23,02,09,6.70
2008,05,23,02,10,6.80
2008,05,23,02,11,6.80
2008,05,23,02,12,6.80
2008,05,23,02,13,6.80
2008,05,23,02,14,6.80
2008,05,23,02,15,6.80
2008,05,23,02,16,6.80
2008,05,23,02,17,6.80
2008,05,23,02,18,6.80
2008,05,23,02,19,6.80
2008,05,23,02,20,6.90
2008,05,23,02,21,6.90
2008,05,23,02,22,6.90
2008,05,23,02,23,6.90
2008,05,23,02,24,6.90
2008,05,23,02,25,6.80
2008,05,23,02,26,6.90
2008,05,23,02,27,6.90
2008,05,23,02,28,6.90
2008,05,23,02,29,6.80
2008,05,23,02,30,6.80
2008,05,23,02,31,6.80
2008,05,23,02,32,6.80
2008,05,23,02,33,6.80
2008,05,23,02,34,6.80
2008,05,23,02,35,6.80
2008,05,23,02,36,6.80
2008,05,23,02,37,6.80
2008,05,23,02,38,6.90
2008,05,23,02,39,6.90
2008,05,23,02,40,6.90
2008,05,23,02,41,6.90
2008,05,23,02,42,6.90
2008,05,23,02,43,6.90
2008,05,23,02,44,6.90
2008,05,23,02,45,6.90
2008,05,23,02,46,6.90
2008,05,23,02,47,6.90
2008,05,23,02,48,6.90
2008,05,23,02,49,6.90
2008,05,23,02,50,6.90
2008,05,23,02,51,6.90
2008,05,23,02,52,6.90
2008,05,23,02,53,6.90
2008,05,23,02,54,6.90
2008,05,23,02,55,6.90
2008,05,23,02,56,6.90
2008,05,23,02,57,6.90
2008,05,23,02,58,6.90
2008,05,23,02,59,6.90
2008,05,23,03,00,6.90
2008,05,23,03,01,6.90
2008,05,23,03,02,6.90
2008,05,23,03,03,6.90
2008,05,23,03,04,6.90
2008,05,23,03,05,6.90
2008,05,23,03,06,6.90
2008,05,23,03,07,6.90
2008,05,23,03,08,6.90
2008,05,23,03,09,6.90
2008,05,23,03,10,6.90
2008,05,23,03,11,6.90
2008,05,23,03,12,6.90
2008,05,23,03,13,6.90
2008,05,23,03,14,6.90
2008,05,23,03,15,6.90
2008,05,23,03,16,6.90
2008,05,23,03,17,6.80
2008,05,23,03,18,6.80
2008,05,23,03,19,6.80
2008,05,23,03,20,6.80
2008,05,23,03,21,6.80
2008,05,23,03,22,6.80
2008,05,23,03,23,6.80
2008,05,23,03,24,6.80
2008,05,23,03,25,6.80
2008,05,23,03,26,6.80
2008,05,23,03,27,6.80
2008,05,23,03,28,6.80
2008,05,23,03,29,6.80
2008,05,23,03,30,6.80
2008,05,23,03,31,6.80
2008,05,23,03,32,6.80
2008,05,23,03,33,6.80
2008,05,23,03,34,6.80
2008,05,23,03,35,6.80
2008,05,23,03,36,6.80
2008,05,23,03,37,6.80
2008,05,23,03,38,6.80
2008,05,23,03,39,6.80
2008,05,23,03,40,6.80
2008,05,23,03,41,6.80
2008,05,23,03,42,6.80
2008,05,23,03,43,6.80
2008,05,23,03,44,6.80
2008,05,23,03,45,6.80
2008,05,23,03,46,6.80
2008,05,23,03,47,6.80
2008,05,23,03,48,6.80
2008,05,23,03,49,6.80
2008,05,23,03,50,6.80
2008,05,23,03,51,6.80
2008,05,23,03,52,6.80
2008,05,23,03,53,6.80
2008,05,23,03,54,6.80
2008,05,23,03,55,6.80
2008,05,23,03,56,6.80
2008,05,23,03,57,6.80
2008,05,23,03,58,6.80
2008,05,23,03,59,6.80
2008,05,23,04,00,6.80
2008,05,23,04,01,6.80
2008,05,23,04,02,6.80
2008,05,23,04,03,6.80
2008,05,23,04,04,6.80
2008,05,23,04,05,6.70
2008,05,23,04,06,6.70
2008,05,23,04,07,6.70
2008,05,23,04,08,6.70
2008,05,23,04,09,6.70
2008,05,23,04,10,6.80
2008,05,23,04,11,6.70
2008,05,23,04,12,6.70
2008,05,23,04,13,6.70
2008,05,23,04,14,6.70
2008,05,23,04,15,6.70
2008,05,23,04,16,6.60
2008,05,23,04,17,6.60
2008,05,23,04,18,6.60
2008,05,23,04,19,6.60
2008,05,23,04,20,6.50
2008,05,23,04,21,6.50
2008,05,23,04,22,6.40
2008,05,23,04,23,6.40
2008,05,23,04,24,6.40
2008,05,23,04,25,6.40
2008,05,23,04,26,6.40
2008,05,23,04,27,6.30
2008,05,23,04,28,6.30
2008,05,23,04,29,6.30
2008,05,23,04,30,6.30
2008,05,23,04,31,6.30
2008,05,23,04,32,6.30
2008,05,23,04,33,6.40
2008,05,23,04,34,6.40
2008,05,23,04,35,6.40
2008,05,23,04,36,6.40
2008,05,23,04,37,6.40
2008,05,23,04,38,6.30
2008,05,23,04,39,6.30
2008,05,23,04,40,6.30
2008,05,23,04,41,6.30
2008,05,23,04,42,6.30
2008,05,23,04,43,6.20
2008,05,23,04,44,6.20
2008,05,23,04,45,6.20
2008,05,23,04,46,6.20
2008,05,23,04,47,6.20
2008,05,23,04,48,6.20
2008,05,23,04,49,6.20
2008,05,23,04,50,6.20
2008,05,23,04,51,6.20
2008,05,23,04,52,6.20
2008,05,23,04,53,6.20
2008,05,23,04,54,6.20
2008,05,23,04,55,6.10
2008,05,23,04,56,6.10
2008,05,23,04,57,6.10
2008,05,23,04,58,6.10
2008,05,23,04,59,6.10
2008,05,23,05,00,6.00
2008,05,23,05,01,6.00
2008,05,23,05,02,6.00
2008,05,23,05,03,5.90
2008,05,23,05,04,5.90
2008,05,23,05,05,5.90
2008,05,23,05,06,5.90
2008,05,23,05,07,5.90
2008,05,23,05,08,5.90
2008,05,23,05,09,5.90
2008,05,23,05,10,5.90
2008,05,23,05,11,5.90
2008,05,23,05,12,5.90
2008,05,23,05,13,5.90
2008,05,23,05,14,5.90
2008,05,23,05,15,5.90
2008,05,23,05,16,5.90
2008,05,23,05,17,5.90
2008,05,23,05,18,5.90
2008,05,23,05,19,5.90
2008,05,23,05,20,5.90
2008,05,23,05,21,5.90
2008,05,23,05,22,5.90
2008,05,23,05,23,5.90
2008,05,23,05,24,5.90
2008,05,23,05,25,5.90
2008,05,23,05,26,5.90
2008,05,23,05,27,5.90
2008,05,23,05,28,5.90
2008,05,23,05,29,5.90
2008,05,23,05,30,5.90
2008,05,23,05,31,5.90
2008,05,23,05,32,5.90
2008,05,23,05,33,5.90
2008,05,23,05,34,5.90
2008,05,23,05,35,5.90
2008,05,23,05,36,5.90
2008,05,23,05,37,5.90
2008,05,23,05,38,5.90
2008,05,23,05,39,5.90
2008,05,23,05,40,5.90
2008,05,23,05,41,5.90
2008,05,23,05,42,5.90
2008,05,23,05,43,5.90
2008,05,23,05,44,6.00
2008,05,23,05,45,6.00
2008,05,23,05,46,6.00
2008,05,23,05,47,6.00
2008,05,23,05,48,6.00
2008,05,23,05,49,6.00
2008,05,23,05,50,6.00
2008,05,23,05,51,6.00
2008,05,23,05,52,6.00
2008,05,23,05,53,6.00
2008,05,23,05,54,6.00
2008,05,23,05,55,6.00
2008,05,23,05,56,6.10
2008,05,23,05,57,6.10
2008,05,23,05,58,6.10
2008,05,23,05,59,6.10
2008,05,23,06,00,6.10
2008,05,23,06,01,6.10
2008,05,23,06,02,6.20
2008,05,23,06,03,6.20
2008,05,23,06,04,6.20
2008,05,23,06,05,6.20
2008,05,23,06,06,6.30
2008,05,23,06,07,6.30
2008,05,23,06,08,6.30
2008,05,23,06,09,6.30
2008,05,23,06,10,6.30
2008,05,23,06,11,6.40
2008,05,23,06,12,6.40
2008,05,23,06,13,6.40
2008,05,23,06,14,6.40
2008,05,23,06,15,6.50
2008,05,23,06,16,6.50
2008,05,23,06,17,6.60
2008,05,23,06,18,6.60
2008,05,23,06,19,6.60
2008,05,23,06,20,6.60
2008,05,23,06,21,6.60
2008,05,23,06,22,6.60
2008,05,23,06,23,6.60
2008,05,23,06,24,6.60
2008,05,23,06,25,6.60
2008,05,23,06,26,6.70
2008,05,23,06,27,6.70
2008,05,23,06,28,6.70
2008,05,23,06,29,6.70
2008,05,23,06,30,6.70
2008,05,23,06,31,6.70
2008,05,23,06,32,6.70
2008,05,23,06,33,6.70
2008,05,23,06,34,6.80
2008,05,23,06,35,6.80
2008,05,23,06,36,6.80
2008,05,23,06,37,6.90
2008,05,23,06,38,6.90
2008,05,23,06,39,6.90
2008,05,23,06,40,7.00
2008,05,23,06,41,7.00
2008,05,23,06,42,7.10
2008,05,23,06,43,7.10
2008,05,23,06,44,7.20
2008,05,23,06,45,7.20
2008,05,23,06,46,7.20
2008,05,23,06,47,7.30
2008,05,23,06,48,7.30
2008,05,23,06,49,7.40
2008,05,23,06,50,7.50
2008,05,23,06,51,7.60
2008,05,23,06,52,7.70
2008,05,23,06,53,7.80
2008,05,23,06,54,7.80
2008,05,23,06,55,7.90
2008,05,23,06,56,8.10
2008,05,23,06,57,8.10
2008,05,23,06,58,8.20
2008,05,23,06,59,8.20
2008,05,23,07,00,8.30
2008,05,23,07,01,8.30
2008,05,23,07,02,8.30
2008,05,23,07,03,8.20
2008,05,23,07,04,8.20
2008,05,23,07,05,8.20
2008,05,23,07,06,8.10
2008,05,23,07,07,8.10
2008,05,23,07,08,8.10
2008,05,23,07,09,8.10
2008,05,23,07,10,8.10
2008,05,23,07,11,8.10
2008,05,23,07,12,8.10
2008,05,23,07,13,8.10
2008,05,23,07,14,8.10
2008,05,23,07,15,8.10
2008,05,23,07,16,8.10
2008,05,23,07,17,8.10
2008,05,23,07,18,8.10
2008,05,23,07,19,8.10
2008,05,23,07,20,8.10
2008,05,23,07,21,8.10
2008,05,23,07,22,8.10
2008,05,23,07,23,8.00
2008,05,23,07,24,8.00
2008,05,23,07,25,8.00
2008,05,23,07,26,8.00
2008,05,23,07,27,8.10
2008,05,23,07,28,8.10
2008,05,23,07,29,8.10
2008,05,23,07,30,8.20
2008,05,23,07,31,8.20
2008,05,23,07,32,8.20
2008,05,23,07,33,8.20
2008,05,23,07,34,8.30
2008,05,23,07,35,8.30
2008,05,23,07,36,8.40
2008,05,23,07,37,8.50
2008,05,23,07,38,8.50
2008,05,23,07,39,8.60
2008,05,23,07,40,8.80
2008,05,23,07,41,8.80
2008,05,23,07,42,8.90
2008,05,23,07,43,9.00
2008,05,23,07,44,9.10
2008,05,23,07,45,9.20
2008,05,23,07,46,9.30
2008,05,23,07,47,9.30
2008,05,23,07,48,9.40
2008,05,23,07,49,9.40
2008,05,23,07,50,9.50
2008,05,23,07,51,9.50
2008,05,23,07,52,9.60
2008,05,23,07,53,9.70
2008,05,23,07,54,9.80
2008,05,23,07,55,9.90
2008,05,23,07,56,10.00
2008,05,23,07,57,10.20
2008,05,23,07,58,10.30
2008,05,23,07,59,10.30
2008,05,23,08,00,10.50
2008,05,23,08,01,10.50
2008,05,23,08,02,10.60
2008,05,23,08,03,10.60
2008,05,23,08,04,10.60
2008,05,23,08,05,10.70
2008,05,23,08,06,10.70
2008,05,23,08,07,10.70
2008,05,23,08,08,10.70
2008,05,23,08,09,10.70
2008,05,23,08,10,10.70
2008,05,23,08,11,10.70
2008,05,23,08,12,10.70
2008,05,23,08,13,10.70
2008,05,23,08,14,10.70
2008,05,23,08,15,10.70
2008,05,23,08,16,10.70
2008,05,23,08,17,10.70
2008,05,23,08,18,10.60
2008,05,23,08,19,10.60
2008,05,23,08,20,10.60
2008,05,23,08,21,10.70
2008,05,23,08,22,10.70
2008,05,23,08,23,10.70
2008,05,23,08,24,10.70
2008,05,23,08,25,10.70
2008,05,23,08,26,10.70
2008,05,23,08,27,10.80
2008,05,23,08,28,10.80
2008,05,23,08,29,10.90
2008,05,23,08,30,10.90
2008,05,23,08,31,10.90
2008,05,23,08,32,11.00
2008,05,23,08,33,11.10
2008,05,23,08,34,11.20
2008,05,23,08,35,11.30
2008,05,23,08,36,11.30
2008,05,23,08,37,11.40
2008,05,23,08,38,11.50
2008,05,23,08,39,11.70
2008,05,23,08,40,11.80
2008,05,23,08,41,11.90
2008,05,23,08,42,12.00
2008,05,23,08,43,12.20
2008,05,23,08,44,12.30
2008,05,23,08,45,12.40
2008,05,23,08,46,12.60
2008,05,23,08,47,12.70
2008,05,23,08,48,12.80
2008,05,23,08,49,12.90
2008,05,23,08,50,13.00
2008,05,23,08,51,13.10
2008,05,23,08,52,13.20
2008,05,23,08,53,13.30
2008,05,23,08,54,13.40
2008,05,23,08,55,13.60
2008,05,23,08,56,13.70
2008,05,23,08,57,13.80
2008,05,23,08,58,14.00
2008,05,23,08,59,14.20
2008,05,23,09,00,14.40
2008,05,23,09,01,14.60
2008,05,23,09,02,14.80
2008,05,23,09,03,15.00
2008,05,23,09,04,15.00
2008,05,23,09,05,15.20
2008,05,23,09,06,15.30
2008,05,23,09,07,15.40
2008,05,23,09,08,15.40
2008,05,23,09,09,15.40
2008,05,23,09,10,15.40
2008,05,23,09,11,15.40
2008,05,23,09,12,15.40
2008,05,23,09,13,15.40
2008,05,23,09,14,15.30
2008,05,23,09,15,15.20
2008,05,23,09,16,15.20
2008,05,23,09,17,15.20
2008,05,23,09,18,15.20
2008,05,23,09,19,15.10
2008,05,23,09,20,15.00
2008,05,23,09,21,15.00
2008,05,23,09,22,14.90
2008,05,23,09,23,14.70
2008,05,23,09,24,14.60
2008,05,23,09,25,14.60
2008,05,23,09,26,14.60
2008,05,23,09,27,14.70
2008,05,23,09,28,14.70
2008,05,23,09,29,14.80
2008,05,23,09,30,14.80
2008,05,23,09,31,14.90
2008,05,23,09,32,15.00
2008,05,23,09,33,15.00
2008,05,23,09,34,15.00
2008,05,23,09,35,15.10
2008,05,23,09,36,15.20
2008,05,23,09,37,15.30
2008,05,23,09,38,15.30
2008,05,23,09,39,15.30
2008,05,23,09,40,15.30
2008,05,23,09,41,15.30
2008,05,23,09,42,15.30
2008,05,23,09,43,15.30
2008,05,23,09,44,15.20
2008,05,23,09,45,15.20
2008,05,23,09,46,15.20
2008,05,23,09,47,15.20
2008,05,23,09,48,15.10
2008,05,23,09,49,15.00
2008,05,23,09,50,15.00
2008,05,23,09,51,15.00
2008,05,23,09,52,15.00
2008,05,23,09,53,15.00
2008,05,23,09,54,15.10
2008,05,23,09,55,15.10
2008,05,23,09,56,15.20
2008,05,23,09,57,15.30
2008,05,23,09,58,15.40
2008,05,23,09,59,15.40
2008,05,23,10,00,15.40
2008,05,23,10,01,15.40
2008,05,23,10,02,15.50
2008,05,23,10,03,15.60
2008,05,23,10,04,15.70
2008,05,23,10,05,15.70
2008,05,23,10,06,15.70
2008,05,23,10,07,15.70
2008,05,23,10,08,15.70
2008,05,23,10,09,15.80
2008,05,23,10,10,15.80
2008,05,23,10,11,15.90
2008,05,23,10,12,15.90
2008,05,23,10,13,16.00
2008,05,23,10,14,16.00
2008,05,23,10,15,16.10
2008,05,23,10,16,16.20
2008,05,23,10,17,16.30
2008,05,23,10,18,16.30
2008,05,23,10,19,16.40
2008,05,23,10,20,16.40
2008,05,23,10,21,16.50
2008,05,23,10,22,16.60
2008,05,23,10,23,16.60
2008,05,23,10,24,16.60
2008,05,23,10,25,16.70
2008,05,23,10,26,16.70
2008,05,23,10,27,16.80
2008,05,23,10,28,16.80
2008,05,23,10,29,16.90
2008,05,23,10,30,17.00
2008,05,23,10,31,17.10
2008,05,23,10,32,17.10
2008,05,23,10,33,17.10
2008,05,23,10,34,17.10
2008,05,23,10,35,17.00
2008,05,23,10,36,17.00
2008,05,23,10,37,16.90
2008,05,23,10,38,16.90
2008,05,23,10,39,16.90
2008,05,23,10,40,17.00
2008,05,23,10,41,17.00
2008,05,23,10,42,17.00
2008,05,23,10,43,17.00
2008,05,23,10,44,17.00
2008,05,23,10,45,17.00
2008,05,23,10,46,17.00
2008,05,23,10,47,17.00
2008,05,23,10,48,17.00
2008,05,23,10,49,16.90
2008,05,23,10,50,16.90
2008,05,23,10,51,16.90
2008,05,23,10,52,16.90
2008,05,23,10,53,16.90
2008,05,23,10,54,16.90
2008,05,23,10,55,16.90
2008,05,23,10,56,16.80
2008,05,23,10,57,16.80
2008,05,23,10,58,16.70
2008,05,23,10,59,16.70
2008,05,23,11,00,16.70
2008,05,23,11,01,16.70
2008,05,23,11,02,16.70
2008,05,23,11,03,16.70
2008,05,23,11,04,16.70
2008,05,23,11,05,16.70
2008,05,23,11,06,16.70
2008,05,23,11,07,16.70
2008,05,23,11,08,16.70
2008,05,23,11,09,16.70
2008,05,23,11,10,16.70
2008,05,23,11,11,16.60
2008,05,23,11,12,16.60
2008,05,23,11,13,16.60
2008,05,23,11,14,16.50
2008,05,23,11,15,16.50
2008,05,23,11,16,16.40
2008,05,23,11,17,16.40
2008,05,23,11,18,16.40
2008,05,23,11,19,16.40
2008,05,23,11,20,16.30
2008,05,23,11,21,16.30
2008,05,23,11,22,16.30
2008,05,23,11,23,16.30
2008,05,23,11,24,16.30
2008,05,23,11,25,16.40
2008,05,23,11,26,16.50
2008,05,23,11,27,16.50
2008,05,23,11,28,16.60
2008,05,23,11,29,16.60
2008,05,23,11,30,16.60
2008,05,23,11,31,16.70
2008,05,23,11,32,16.70
2008,05,23,11,33,16.80
2008,05,23,11,34,16.80
2008,05,23,11,35,16.80
2008,05,23,11,36,16.90
2008,05,23,11,37,17.00
2008,05,23,11,38,17.10
2008,05,23,11,39,17.20
2008,05,23,11,40,17.30
2008,05,23,11,41,17.40
2008,05,23,11,42,17.40
2008,05,23,11,43,17.40
2008,05,23,11,44,17.50
2008,05,23,11,45,17.60
2008,05,23,11,46,17.70
2008,05,23,11,47,17.70
2008,05,23,11,48,17.70
2008,05,23,11,49,17.80
2008,05,23,11,50,17.80
2008,05,23,11,51,17.90
2008,05,23,11,52,18.00
2008,05,23,11,53,18.10
2008,05,23,11,54,18.20
2008,05,23,11,55,18.40
2008,05,23,11,56,18.50
2008,05,23,11,57,18.50
2008,05,23,11,58,18.60
2008,05,23,11,59,18.70
2008,05,23,12,00,18.70
2008,05,23,12,01,18.80
2008,05,23,12,02,18.90
2008,05,23,12,03,19.00
2008,05,23,12,04,19.00
2008,05,23,12,05,19.00
2008,05,23,12,06,19.00
2008,05,23,12,07,19.00
2008,05,23,12,08,19.10
2008,05,23,12,09,19.10
2008,05,23,12,10,19.20
2008,05,23,12,11,19.20
2008,05,23,12,12,19.30
2008,05,23,12,13,19.30
2008,05,23,12,14,19.40
2008,05,23,12,15,19.50
2008,05,23,12,16,19.50
2008,05,23,12,17,19.40
2008,05,23,12,18,19.10
2008,05,23,12,19,18.80
2008,05,23,12,20,18.60
2008,05,23,12,21,18.60
2008,05,23,12,22,18.60
2008,05,23,12,23,18.50
2008,05,23,12,24,18.40
2008,05,23,12,25,18.40
2008,05,23,12,26,18.40
2008,05,23,12,27,18.40
2008,05,23,12,28,18.50
2008,05,23,12,29,18.50
2008,05,23,12,30,18.60
2008,05,23,12,31,18.60
2008,05,23,12,32,18.50
2008,05,23,12,33,18.50
2008,05,23,12,34,18.50
2008,05,23,12,35,18.60
2008,05,23,12,36,18.80
2008,05,23,12,37,18.90
2008,05,23,12,38,19.00
2008,05,23,12,39,19.10
2008,05,23,12,40,19.20
2008,05,23,12,41,19.30
2008,05,23,12,42,19.30
2008,05,23,12,43,19.40
2008,05,23,12,44,19.40
2008,05,23,12,45,19.50
2008,05,23,12,46,19.60
2008,05,23,12,47,19.60
2008,05,23,12,48,19.70
2008,05,23,12,49,19.70
2008,05,23,12,50,19.80
2008,05,23,12,51,19.80
2008,05,23,12,52,19.80
2008,05,23,12,53,19.80
2008,05,23,12,54,19.70
2008,05,23,12,55,19.60
2008,05,23,12,56,19.50
2008,05,23,12,57,19.50
2008,05,23,12,58,19.50
2008,05,23,12,59,19.60
2008,05,23,13,00,19.60
2008,05,23,13,01,19.60
2008,05,23,13,02,19.50
2008,05,23,13,03,19.50
2008,05,23,13,04,19.50
2008,05,23,13,05,19.50
2008,05,23,13,06,19.60
2008,05,23,13,07,19.60
2008,05,23,13,08,19.60
2008,05,23,13,09,19.60
2008,05,23,13,10,19.50
2008,05,23,13,11,19.40
2008,05,23,13,12,19.30
2008,05,23,13,13,19.20
2008,05,23,13,14,19.10
2008,05,23,13,15,18.80
2008,05,23,13,16,18.70
2008,05,23,13,17,18.60
2008,05,23,13,18,18.60
2008,05,23,13,19,18.60
2008,05,23,13,20,18.60
2008,05,23,13,21,18.50
2008,05,23,13,22,18.50
2008,05,23,13,23,18.60
2008,05,23,13,24,18.60
2008,05,23,13,25,18.70
2008,05,23,13,26,18.60
2008,05,23,13,27,18.60
2008,05,23,13,28,18.50
2008,05,23,13,29,18.50
2008,05,23,13,30,18.50
2008,05,23,13,31,18.50
2008,05,23,13,32,18.40
2008,05,23,13,33,18.30
2008,05,23,13,34,18.30
2008,05,23,13,35,18.30
2008,05,23,13,36,18.30
2008,05,23,13,37,18.30
2008,05,23,13,38,18.30
2008,05,23,13,39,18.30
2008,05,23,13,40,18.30
2008,05,23,13,41,18.30
2008,05,23,13,42,18.30
2008,05,23,13,43,18.30
2008,05,23,13,44,18.30
2008,05,23,13,45,18.30
2008,05,23,13,46,18.40
2008,05,23,13,47,18.40
2008,05,23,13,48,18.50
2008,05,23,13,49,18.60
2008,05,23,13,50,18.60
2008,05,23,13,51,18.60
2008,05,23,13,52,18.50
2008,05,23,13,53,18.40
2008,05,23,13,54,18.30
2008,05,23,13,55,18.20
2008,05,23,13,56,18.20
2008,05,23,13,57,18.10
2008,05,23,13,58,18.20
2008,05,23,13,59,18.20
2008,05,23,14,00,18.20
2008,05,23,14,01,18.20
2008,05,23,14,02,18.30
2008,05,23,14,03,18.30
2008,05,23,14,04,18.30
2008,05,23,14,05,18.30
2008,05,23,14,06,18.30
2008,05,23,14,07,18.40
2008,05,23,14,08,18.40
2008,05,23,14,09,18.50
2008,05,23,14,10,18.60
2008,05,23,14,11,18.70
2008,05,23,14,12,18.70
2008,05,23,14,13,18.70
2008,05,23,14,14,18.70
2008,05,23,14,15,18.60
2008,05,23,14,16,18.60
2008,05,23,14,17,18.60
2008,05,23,14,18,18.60
2008,05,23,14,19,18.70
2008,05,23,14,20,18.70
2008,05,23,14,21,18.70
2008,05,23,14,22,18.80
2008,05,23,14,23,18.80
2008,05,23,14,24,18.90
2008,05,23,14,25,18.90
2008,05,23,14,26,19.00
2008,05,23,14,27,19.20
2008,05,23,14,28,19.20
2008,05,23,14,29,19.30
2008,05,23,14,30,19.30
2008,05,23,14,31,19.30
2008,05,23,14,32,19.30
2008,05,23,14,33,19.30
2008,05,23,14,34,19.30
2008,05,23,14,35,19.40
2008,05,23,14,36,19.40
2008,05,23,14,37,19.50
2008,05,23,14,38,19.60
2008,05,23,14,39,19.70
2008,05,23,14,40,19.80
2008,05,23,14,41,19.90
2008,05,23,14,42,19.90
2008,05,23,14,43,19.90
2008,05,23,14,44,19.90
2008,05,23,14,45,19.90
2008,05,23,14,46,20.00
2008,05,23,14,47,20.00
2008,05,23,14,48,20.00
2008,05,23,14,49,20.10
2008,05,23,14,50,20.10
2008,05,23,14,51,20.10
2008,05,23,14,52,20.10
2008,05,23,14,53,20.00
2008,05,23,14,54,20.00
2008,05,23,14,55,20.00
2008,05,23,14,56,19.90
2008,05,23,14,57,19.90
2008,05,23,14,58,19.90
2008,05,23,14,59,19.90
2008,05,23,15,00,20.00
2008,05,23,15,01,20.00
2008,05,23,15,02,20.10
2008,05,23,15,03,20.20
2008,05,23,15,04,20.20
2008,05,23,15,05,20.20
2008,05,23,15,06,20.20
2008,05,23,15,07,20.20
2008,05,23,15,08,20.30
2008,05,23,15,09,20.30
2008,05,23,15,10,20.40
2008,05,23,15,11,20.30
2008,05,23,15,12,20.30
2008,05,23,15,13,20.20
2008,05,23,15,14,20.20
2008,05,23,15,15,20.10
2008,05,23,15,16,20.00
2008,05,23,15,17,19.80
2008,05,23,15,18,19.70
2008,05,23,15,19,19.60
2008,05,23,15,20,19.50
2008,05,23,15,21,19.40
2008,05,23,15,22,19.40
2008,05,23,15,23,19.30
2008,05,23,15,24,19.30
2008,05,23,15,25,19.30
2008,05,23,15,26,19.30
2008,05,23,15,27,19.20
2008,05,23,15,28,19.20
2008,05,23,15,29,19.20
2008,05,23,15,30,19.20
2008,05,23,15,31,19.20
2008,05,23,15,32,19.10
2008,05,23,15,33,19.10
2008,05,23,15,34,19.10
2008,05,23,15,35,19.10
2008,05,23,15,36,19.10
2008,05,23,15,37,19.00
2008,05,23,15,38,19.00
2008,05,23,15,39,19.00
2008,05,23,15,40,18.90
2008,05,23,15,41,18.90
2008,05,23,15,42,18.80
2008,05,23,15,43,18.80
2008,05,23,15,44,18.80
2008,05,23,15,45,18.80
2008,05,23,15,46,18.80
2008,05,23,15,47,18.80
2008,05,23,15,48,18.80
2008,05,23,15,49,18.80
2008,05,23,15,50,18.80
2008,05,23,15,51,18.80
2008,05,23,15,52,18.80
2008,05,23,15,53,18.90
2008,05,23,15,54,18.90
2008,05,23,15,55,18.90
2008,05,23,15,56,18.90
2008,05,23,15,57,18.90
2008,05,23,15,58,18.90
2008,05,23,15,59,18.80
2008,05,23,16,00,18.80
2008,05,23,16,01,18.70
2008,05,23,16,02,18.60
2008,05,23,16,03,18.40
2008,05,23,16,04,18.30
2008,05,23,16,05,18.30
2008,05,23,16,06,18.20
2008,05,23,16,07,18.20
2008,05,23,16,08,18.20
2008,05,23,16,09,18.10
2008,05,23,16,10,18.00
2008,05,23,16,11,18.00
2008,05,23,16,12,18.00
2008,05,23,16,13,17.90
2008,05,23,16,14,17.90
2008,05,23,16,15,17.90
2008,05,23,16,16,17.90
2008,05,23,16,17,17.90
2008,05,23,16,18,17.90
2008,05,23,16,19,17.90
2008,05,23,16,20,17.80
2008,05,23,16,21,17.80
2008,05,23,16,22,17.90
2008,05,23,16,23,17.80
2008,05,23,16,24,17.80
2008,05,23,16,25,17.80
2008,05,23,16,26,17.80
2008,05,23,16,27,17.80
2008,05,23,16,28,17.80
2008,05,23,16,29,17.80
2008,05,23,16,30,17.80
2008,05,23,16,31,17.90
2008,05,23,16,32,17.90
2008,05,23,16,33,17.90
2008,05,23,16,34,17.90
2008,05,23,16,35,17.90
2008,05,23,16,36,17.90
2008,05,23,16,37,17.90
2008,05,23,16,38,17.90
2008,05,23,16,39,17.90
2008,05,23,16,40,17.90
2008,05,23,16,41,17.90
2008,05,23,16,42,17.90
2008,05,23,16,43,17.90
2008,05,23,16,44,17.90
2008,05,23,16,45,17.80
2008,05,23,16,46,17.80
2008,05,23,16,47,17.80
2008,05,23,16,48,17.80
2008,05,23,16,49,17.70
2008,05,23,16,50,17.70
2008,05,23,16,51,17.70
2008,05,23,16,52,17.60
2008,05,23,16,53,17.60
2008,05,23,16,54,17.60
2008,05,23,16,55,17.60
2008,05,23,16,56,17.60
2008,05,23,16,57,17.60
2008,05,23,16,58,17.60
2008,05,23,16,59,17.60
2008,05,23,17,00,17.60
2008,05,23,17,01,17.60
2008,05,23,17,02,17.60
2008,05,23,17,03,17.60
2008,05,23,17,04,17.60
2008,05,23,17,05,17.60
2008,05,23,17,06,17.60
2008,05,23,17,07,17.60
2008,05,23,17,08,17.60
2008,05,23,17,09,17.60
2008,05,23,17,10,17.60
2008,05,23,17,11,17.50
2008,05,23,17,12,17.50
2008,05,23,17,13,17.40
2008,05,23,17,14,17.30
2008,05,23,17,15,17.20
2008,05,23,17,16,17.00
2008,05,23,17,17,16.90
2008,05,23,17,18,16.90
2008,05,23,17,19,16.80
2008,05,23,17,20,16.80
2008,05,23,17,21,16.80
2008,05,23,17,22,16.70
2008,05,23,17,23,16.70
2008,05,23,17,24,16.70
2008,05,23,17,25,16.70
2008,05,23,17,26,16.60
2008,05,23,17,27,16.60
2008,05,23,17,28,16.60
2008,05,23,17,29,16.60
2008,05,23,17,30,16.60
2008,05,23,17,31,16.60
2008,05,23,17,32,16.60
2008,05,23,17,33,16.60
2008,05,23,17,34,16.60
2008,05,23,17,35,16.60
2008,05,23,17,36,16.60
2008,05,23,17,37,16.60
2008,05,23,17,38,16.60
2008,05,23,17,39,16.60
2008,05,23,17,40,16.60
2008,05,23,17,41,16.60
2008,05,23,17,42,16.60
2008,05,23,17,43,16.60
2008,05,23,17,44,16.60
2008,05,23,17,45,16.60
2008,05,23,17,46,16.60
2008,05,23,17,47,16.60
2008,05,23,17,48,16.60
2008,05,23,17,49,16.60
2008,05,23,17,50,16.60
2008,05,23,17,51,16.60
2008,05,23,17,52,16.60
2008,05,23,17,53,16.60
2008,05,23,17,54,16.60
2008,05,23,17,55,16.60